Location: Greenwich
(51.4790°N, 0.0090°E)
Time: 04:27:28
(UTC+01:00)

Altair - Visible Passes

Search period start: 22 April 2024 00:00
Search period end: 02 May 2024 00:00
Orbit: 1502 x 1682 km, 47.2° (Epoch: 21 April)

Date Brightness Start Highest point End Pass type
(mag) Time Alt. Az. Time Alt. Az. Time Alt. Az.
22 Apr 7.5 00:14:51 10° W 00:24:17 55° SSW 00:27:03 43° SSE visible
22 Apr 8.5 02:20:04 10° W 02:25:01 23° WSW 02:25:01 23° WSW visible
22 Apr 7.6 21:45:00 10° WSW 21:54:54 70° S 22:04:27 10° E visible
22 Apr 7.5 23:49:36 10° W 23:59:08 57° SSW 00:02:41 39° SE visible
23 Apr 8.4 01:54:44 10° W 02:00:40 26° WSW 02:00:40 26° WSW visible
23 Apr 7.6 21:19:46 10° WSW 21:29:42 70° S 21:39:16 10° E visible
23 Apr 7.5 23:24:21 10° W 23:33:59 59° SSW 23:38:23 34° SE visible
24 Apr 8.2 01:29:24 10° W 01:36:22 29° SW 01:36:22 29° SW visible
24 Apr 7.7 20:54:33 10° WSW 21:04:30 69° S 21:14:06 10° E visible
24 Apr 7.6 22:59:07 10° W 23:08:48 61° SSW 23:14:07 29° SE visible
25 Apr 8.1 01:04:05 10° W 01:12:07 32° SW 01:12:07 32° SW visible
25 Apr 7.6 22:33:52 10° W 22:43:38 63° SSW 22:49:54 24° SE visible
26 Apr 8.0 00:38:46 10° W 00:47:12 34° SW 00:47:53 34° SSW visible
26 Apr 7.6 22:08:38 10° W 22:18:27 64° SSW 22:25:42 19° ESE visible
27 Apr 8.0 00:13:28 10° W 00:22:06 37° SW 00:23:41 35° SSW visible
27 Apr 7.6 21:43:23 10° W 21:53:15 66° SSW 22:01:32 15° ESE visible
27 Apr 8.0 23:48:11 10° W 23:57:00 39° SW 23:59:32 34° S visible
28 Apr 9.1 01:55:47 10° W 01:57:31 12° WSW 01:57:31 12° WSW visible
28 Apr 7.7 21:18:08 10° W 21:28:04 67° S 21:37:24 11° ESE visible
28 Apr 8.0 23:22:55 10° W 23:31:54 41° SW 23:35:24 31° S visible
29 Apr 9.0 01:29:53 10° W 01:33:24 14° WSW 01:33:24 14° WSW visible
29 Apr 7.7 20:52:54 10° W 21:02:52 68° S 21:12:27 10° ESE visible
29 Apr 8.0 22:57:38 10° W 23:06:46 43° SSW 23:11:17 28° SSE visible
30 Apr 8.9 01:04:10 10° W 01:09:17 16° SW 01:09:17 16° SW visible
30 Apr 8.0 22:32:22 10° W 22:41:39 46° SSW 22:47:13 24° SSE visible
01 May 8.8 00:38:33 10° W 00:44:23 18° SW 00:45:13 18° SW visible
01 May 8.0 22:07:07 10° W 22:16:30 48° SSW 22:23:10 20° SE visible
